[[{"header":{"parameterUnit":"m.s-1","parameterCategory":1,"la1":30.2991,"la2":30.254,"lo1":-89.0895,"lo2":-89.0444,"dy":0.0017,"dx":0.0017,"nx":28,"ny":28,"refTime":"2024-02-06T03:00:00:Z","depth":0,"parameterNumber":2,"parameterNumberName":"U-component_of_WINDS"},"data":[0,0,0,0,0,0,0,0,0,0,0,0,0,0,0,0,0,0,0,0,0,0,0,0,0,0,0,0,0,0,0,0,0,0,0,0,0,0,0,0,0,0,0,0,0,0,0,0,0,0,0,0,0,0,0,0,0,0,0.5257,0.5257,0,0.5292,0.5292,0.5293,0.5288,0.5287,0.5287,0.5286,0.5323,0.5324,0.5326,0,0,0,0,0,0,0,0,0,0,0,0,0,0.5188,0.5189,0.5257,0.5257,0.5258,0.5292,0.5292,0.5293,0.5288,0.5287,0.5286,0.5286,0.5322,0.5324,0.5326,0,0,0,0,0,0,0,0,0,0,0,0,0,0.522,0.519,0.5257,0.5259,0.526,0.5292,0.5292,0.5293,0.5288,0.5287,0.5286,0.5285,0.5322,0.5324,0.5326,0.5358,0,0,0.5333,0.5334,0,0,0,0,0,0,0,0,0.5218,0.5222,0.5259,0.5259,0.526,0.5285,0.5281,0.5315,0.5288,0.5277,0.5286,0.5285,0.5311,0.5314,0.5322,0.536,0.5361,0.5333,0.5335,0.5336,0.5336,0,0,0,0,0,0,0,0.5216,0.5221,0.5271,0.5259,0.526,0.526,0.5263,0.5288,0.5299,0.5278,0.5278,0.5282,0.5311,0.532,0.5323,0.5362,0.5333,0.5335,0.5337,0.5338,0.543,0.5431,0,0,0,0,0,0,0.5213,0.5219,0.527,0.5272,0.5236,0.5261,0.5265,0.5278,0.5298,0.5301,0.5283,0.5282,0.5317,0.5321,0.5325,0.5365,0.5336,0.5338,0.5339,0.5429,0.543,0.5431,0,0,0,0,0,0,0.5211,0.5217,0.5268,0.5245,0.5252,0.5264,0.5277,0.5279,0.5288,0.5302,0.5304,0.529,0.5316,0.5321,0.535,0.5366,0.5339,0.5341,0.5427,0.5429,0.5431,0.5446,0,0,0,0,0,0,0.5209,0.5217,0.5228,0.5246,0.5253,0.5293,0.5278,0.528,0.5292,0.5291,0.5309,0.5311,0.5316,0.5347,0.5353,0.5369,0.5343,0.5426,0.5428,0.543,0.5444,0.5448,0.5451,0,0,0,0,0,0.5207,0.5231,0.5229,0.5235,0.5268,0.5294,0.5298,0.5302,0.5293,0.5306,0.5315,0.5311,0.5363,0.535,0.5356,0.5374,0.5425,0.5428,0.543,0.5442,0.5447,0.5451,0,0,0,0,0,0,0.5215,0.5233,0.5231,0.5261,0.5276,0.5293,0.5308,0.5307,0.5324,0.5323,0.5328,0.5332,0.5362,0.537,0.5355,0.5407,0.5393,0.5397,0.54,0.5405,0.5408,0.5406,0.5345,0,0,0,0,0,0.522,0.5239,0.5254,0.5279,0.5287,0.5296,0.5308,0.531,0.5325,0.5332,0.5343,0.5359,0.5379,0.5392,0.5411,0.5445,0.545,0.546,0.5464,0.5466,0.547,0.5491,0.5497,0.5439,0.5439,0.5439,0,0,0.5231,0.5243,0.5255,0.5281,0.5293,0.5314,0.5301,0.5323,0.5339,0.5335,0.5364,0.5373,0.539,0.5423,0.5437,0.5431,0.5487,0.547,0.5472,0.5474,0.5494,0.55,0.5505,0.5441,0.544,0.544,0,0,0.5262,0.5272,0.5296,0.5308,0.5326,0.5333,0.5338,0.5356,0.5362,0.539,0.5389,0.5408,0.5442,0.5455,0.5467,0.5505,0.5503,0.5511,0.553,0.5551,0.5555,0.5559,0.5576,0.5581,0.5515,0.5515,0.5515,0,0.5274,0.5304,0.5308,0.5331,0.5343,0.5341,0.5366,0.5377,0.5401,0.541,0.5402,0.5447,0.5458,0.5495,0.5505,0.5513,0.5521,0.551,0.5554,0.5558,0.5562,0.5578,0.5584,0.5516,0.5516,0.5515,0.5515,0,0.5319,0.534,0.5357,0.538,0.5395,0.5418,0.5427,0.5441,0.5442,0.545,0.5481,0.5495,0.5518,0.5526,0.5527,0.5564,0.556,0.5553,0.5539,0.5569,0.5584,0.5589,0.5517,0.5517,0.5516,0.5516,0,0,0.5356,0.5382,0.5388,0.54,0.542,0.5437,0.5462,0.5485,0.5498,0.5514,0.5536,0.5566,0.5561,0.5574,0.5576,0.5594,0.5627,0.5586,0.5586,0.5595,0.5671,0.5677,0.5684,0.5625,0.5626,0.5627,0.567,0,0.5391,0.5433,0.5438,0.5476,0.5498,0.5496,0.5518,0.5533,0.5542,0.5562,0.5571,0.5593,0.5583,0.5591,0.5608,0.5619,0.5643,0.5616,0.5647,0.5648,0.5645,0.5691,0.5698,0.5737,0.5676,0.5677,0.5677,0,0.5437,0.5455,0.5496,0.5516,0.5525,0.5544,0.5567,0.5585,0.5604,0.5608,0.5624,0.5625,0.5652,0.5636,0.5674,0.5656,0.5669,0.5677,0.5679,0.5683,0.5666,0.5699,0.575,0.5757,0.5686,0.5685,0.5685,0,0.5462,0.5498,0.5527,0.5537,0.556,0.5574,0.5584,0.5602,0.5616,0.5636,0.5646,0.5668,0.5681,0.5699,0.5707,0.5695,0.5746,0.573,0.5752,0.5753,0.5764,0.5764,0.582,0.5769,0.5769,0.5769,0.5769,0,0.5502,0.5527,0.554,0.5558,0.5587,0.5593,0.5622,0.5632,0.5648,0.567,0.5669,0.5689,0.5698,0.572,0.5726,0.5758,0.5763,0.5769,0.5771,0.5771,0.577,0.5781,0.5779,0.5771,0.577,0.577,0.577,0,0.5536,0.5545,0.5578,0.5597,0.5603,0.5624,0.5641,0.566,0.5668,0.5695,0.5702,0.5716,0.5742,0.5751,0.5782,0.5787,0.5825,0.5823,0.5819,0.582,0.5843,0.5841,0.5909,0.592,0.586,0.586,0.5861,0,0.5562,0.5581,0.5604,0.5618,0.5629,0.5652,0.5667,0.5674,0.5689,0.5713,0.573,0.5755,0.5777,0.5819,0.5832,0.5857,0.5857,0.5879,0.5861,0.5861,0.5861,0.586,0.5864,0.5883,0.5884,0.5884,0.5885,0,0.5607,0.5611,0.5632,0.5656,0.5674,0.5692,0.5711,0.5722,0.5732,0.575,0.5777,0.5794,0.5827,0.5854,0.5879,0.5891,0.5891,0.589,0.5897,0.5898,0.5896,0.59,0.5831,0.5889,0.5889,0.5888,0.5888,0.5888,0.5639,0.5658,0.5677,0.5701,0.5716,0.5734,0.5753,0.5764,0.5786,0.5814,0.5817,0.5846,0.5867,0.5901,0.5914,0.5939,0.5933,0.5942,0.5945,0.5948,0.5951,0.589,0.5943,0.5943,0.5943,0.5943,0.5943,0,0.5687,0.5699,0.5721,0.5748,0.5767,0.5764,0.5785,0.5802,0.5828,0.5847,0.5868,0.5901,0.5927,0.5943,0.597,0.5986,0.5987,0.5993,0.5993,0.5997,0.5953,0.5945,0.5993,0.5993,0.5993,0.5993,0.5993,0.5993,0.5714,0.5746,0.5752,0.5793,0.5805,0.5834,0.5847,0.5864,0.5879,0.5915,0.5937,0.5947,0.5965,0.5994,0.6019,0.6023,0.6034,0.6041,0.6045,0.6004,0.5999,0.5994,0.5988,0.6043,0.6043,0.6087,0.6088,0.6088]},{"header":{"parameterUnit":"m.s-1","parameterCategory":1,"la1":30.2991,"la2":30.254,"lo1":-89.0895,"lo2":-89.0444,"dy":0.0017,"dx":0.0017,"nx":28,"ny":28,"refTime":"2024-02-06T03:00:00:Z","depth":0,"parameterNumber":3,"parameterNumberName":"V-component_of_WINDS"},"data":[0,0,0,0,0,0,0,0,0,0,0,0,0,0,0,0,0,0,0,0,0,0,0,0,0,0,0,0,0,0,0,0,0,0,0,0,0,0,0,0,0,0,0,0,0,0,0,0,0,0,0,0,0,0,0,0,0,0,-2.4193,-2.4194,0,-2.4216,-2.4216,-2.4217,-2.4225,-2.4225,-2.4225,-2.4225,-2.4246,-2.4247,-2.4247,0,0,0,0,0,0,0,0,0,0,0,0,0,-2.4156,-2.4156,-2.4193,-2.4194,-2.4194,-2.4216,-2.4216,-2.4217,-2.4225,-2.4225,-2.4225,-2.4225,-2.4246,-2.4247,-2.4247,0,0,0,0,0,0,0,0,0,0,0,0,0,-2.4175,-2.4157,-2.4193,-2.4201,-2.4202,-2.4216,-2.4216,-2.4217,-2.4225,-2.4225,-2.4225,-2.4225,-2.4246,-2.4247,-2.4248,-2.4255,0,0,-2.425,-2.4251,0,0,0,0,0,0,0,0,-2.4173,-2.4176,-2.4199,-2.42,-2.4201,-2.4218,-2.4211,-2.423,-2.4225,-2.4216,-2.4225,-2.4225,-2.4237,-2.4238,-2.4243,-2.4256,-2.4257,-2.425,-2.4251,-2.4251,-2.4252,0,0,0,0,0,0,0,-2.4172,-2.4175,-2.4202,-2.42,-2.4201,-2.4203,-2.4205,-2.4215,-2.4227,-2.4217,-2.4218,-2.422,-2.4237,-2.4242,-2.4243,-2.4258,-2.425,-2.4251,-2.4252,-2.4252,-2.4279,-2.4279,0,0,0,0,0,0,-2.417,-2.4174,-2.4202,-2.4203,-2.4187,-2.4203,-2.4206,-2.4213,-2.4227,-2.4229,-2.422,-2.4221,-2.424,-2.4242,-2.4244,-2.4254,-2.4251,-2.4252,-2.4253,-2.4279,-2.4279,-2.4279,0,0,0,0,0,0,-2.4169,-2.4172,-2.4201,-2.4189,-2.4192,-2.4204,-2.4211,-2.4213,-2.4218,-2.4229,-2.4231,-2.4223,-2.424,-2.4243,-2.4253,-2.4255,-2.4253,-2.4254,-2.4279,-2.4279,-2.4279,-2.4275,0,0,0,0,0,0,-2.4168,-2.4172,-2.4175,-2.4189,-2.4193,-2.4209,-2.4211,-2.4214,-2.422,-2.422,-2.4232,-2.4234,-2.424,-2.4251,-2.4254,-2.4256,-2.4254,-2.4279,-2.4279,-2.4279,-2.4275,-2.4275,-2.4275,0,0,0,0,0,-2.4167,-2.4173,-2.4176,-2.4179,-2.4198,-2.421,-2.4212,-2.422,-2.422,-2.4223,-2.423,-2.4234,-2.4255,-2.4252,-2.4255,-2.4258,-2.4278,-2.4279,-2.4279,-2.4275,-2.4275,-2.4275,0,0,0,0,0,0,-2.4159,-2.4175,-2.4178,-2.4189,-2.4198,-2.4211,-2.4215,-2.4219,-2.4228,-2.4228,-2.4237,-2.4239,-2.4249,-2.4254,-2.4251,-2.4267,-2.4267,-2.4268,-2.4262,-2.4263,-2.4263,-2.4261,-2.4255,0,0,0,0,0,-2.4158,-2.4167,-2.418,-2.4189,-2.4193,-2.4204,-2.4209,-2.4214,-2.4224,-2.4227,-2.4235,-2.4244,-2.4253,-2.4258,-2.4266,-2.4276,-2.4278,-2.4279,-2.4279,-2.4279,-2.428,-2.4285,-2.4286,-2.428,-2.428,-2.428,0,0,-2.4157,-2.4167,-2.4172,-2.4187,-2.4195,-2.4204,-2.4207,-2.4215,-2.4222,-2.4228,-2.4239,-2.4245,-2.4255,-2.4265,-2.4269,-2.427,-2.4282,-2.428,-2.428,-2.428,-2.4286,-2.4286,-2.4287,-2.4281,-2.428,-2.428,0,0,-2.416,-2.4169,-2.4177,-2.4184,-2.4196,-2.4203,-2.4205,-2.4218,-2.4222,-2.4233,-2.4238,-2.4245,-2.426,-2.4267,-2.4273,-2.4279,-2.4282,-2.4281,-2.4281,-2.4286,-2.4287,-2.4287,-2.4289,-2.429,-2.4282,-2.4282,-2.4282,0,-2.4157,-2.4171,-2.418,-2.4189,-2.4195,-2.4203,-2.421,-2.4217,-2.4231,-2.4235,-2.4235,-2.4254,-2.4261,-2.4273,-2.4275,-2.4279,-2.4281,-2.428,-2.4286,-2.4287,-2.4287,-2.4289,-2.429,-2.4281,-2.4281,-2.4281,-2.4281,0,-2.4167,-2.4177,-2.4181,-2.4195,-2.4202,-2.4211,-2.422,-2.4226,-2.4231,-2.4238,-2.4248,-2.4257,-2.4268,-2.4271,-2.4275,-2.4283,-2.4283,-2.4285,-2.4285,-2.4288,-2.429,-2.429,-2.4281,-2.4281,-2.4281,-2.4281,0,0,-2.4165,-2.4185,-2.4186,-2.4193,-2.4206,-2.4214,-2.4222,-2.4233,-2.4238,-2.4247,-2.4254,-2.4267,-2.4269,-2.4275,-2.428,-2.4285,-2.4289,-2.4286,-2.4286,-2.4286,-2.4298,-2.4297,-2.4297,-2.4291,-2.4291,-2.4291,-2.4297,0,-2.417,-2.4186,-2.4195,-2.4207,-2.4216,-2.4223,-2.423,-2.4239,-2.4246,-2.4254,-2.4261,-2.4269,-2.4271,-2.4275,-2.428,-2.4287,-2.4291,-2.4287,-2.4297,-2.4298,-2.4295,-2.4298,-2.4297,-2.4302,-2.4298,-2.4298,-2.4298,0,-2.4177,-2.4188,-2.4201,-2.4214,-2.4218,-2.4225,-2.4235,-2.4243,-2.4253,-2.4258,-2.4265,-2.427,-2.4279,-2.4279,-2.4291,-2.4288,-2.4293,-2.4297,-2.4297,-2.4298,-2.4298,-2.43,-2.4304,-2.4304,-2.43,-2.4299,-2.4299,0,-2.4175,-2.4192,-2.4202,-2.4207,-2.4223,-2.4227,-2.4234,-2.4244,-2.425,-2.4259,-2.4263,-2.4273,-2.4279,-2.4286,-2.4294,-2.4293,-2.4305,-2.4306,-2.4309,-2.4308,-2.4311,-2.431,-2.4316,-2.4314,-2.4314,-2.4314,-2.4314,0,-2.4179,-2.4187,-2.4201,-2.4207,-2.4216,-2.4226,-2.4234,-2.4241,-2.425,-2.4258,-2.4264,-2.4271,-2.4281,-2.4289,-2.4295,-2.4304,-2.4306,-2.431,-2.4311,-2.4309,-2.4309,-2.4312,-2.4312,-2.4314,-2.4314,-2.4314,-2.4314,0,-2.4178,-2.4187,-2.4199,-2.4213,-2.4217,-2.4223,-2.4234,-2.4241,-2.4248,-2.4257,-2.426,-2.4271,-2.428,-2.4289,-2.4301,-2.4305,-2.4314,-2.4316,-2.4311,-2.4312,-2.4315,-2.4314,-2.4322,-2.4323,-2.4321,-2.4321,-2.4321,0,-2.418,-2.4186,-2.4201,-2.4207,-2.4213,-2.4223,-2.4229,-2.4239,-2.4245,-2.4257,-2.4262,-2.4272,-2.4281,-2.4296,-2.4305,-2.4314,-2.4316,-2.4318,-2.4318,-2.4315,-2.4316,-2.4316,-2.4316,-2.4318,-2.4318,-2.4318,-2.4318,0,-2.4182,-2.4187,-2.4196,-2.4208,-2.4216,-2.4225,-2.4234,-2.4238,-2.4249,-2.4256,-2.4266,-2.4273,-2.4286,-2.4296,-2.4307,-2.4313,-2.4317,-2.4318,-2.432,-2.4317,-2.4314,-2.4316,-2.4311,-2.4318,-2.4318,-2.4318,-2.4318,-2.4318,-2.4183,-2.4189,-2.42,-2.4211,-2.4219,-2.4228,-2.4234,-2.4242,-2.4251,-2.4263,-2.4268,-2.4278,-2.4289,-2.4303,-2.431,-2.4318,-2.4318,-2.432,-2.432,-2.4321,-2.432,-2.4313,-2.4319,-2.432,-2.432,-2.432,-2.432,0,-2.4186,-2.4194,-2.4203,-2.4216,-2.4224,-2.4228,-2.4239,-2.4245,-2.4255,-2.4264,-2.4273,-2.4284,-2.4294,-2.4304,-2.4314,-2.4319,-2.4321,-2.4321,-2.4321,-2.4322,-2.4319,-2.4317,-2.4319,-2.4319,-2.4319,-2.4319,-2.4319,-2.4319,-2.4188,-2.4199,-2.4205,-2.4219,-2.4227,-2.4238,-2.4244,-2.4251,-2.4259,-2.4272,-2.4281,-2.4287,-2.4296,-2.4307,-2.4317,-2.4319,-2.4322,-2.4322,-2.4325,-2.4322,-2.4322,-2.4322,-2.432,-2.4323,-2.4323,-2.4327,-2.4327,-2.4327]}]]